Year,Month,Day,Hour,Minute,Value (Times are PST for temperature in C)
2017,12,07,00,00,3.10
2017,12,07,00,01,3.10
2017,12,07,00,02,3.10
2017,12,07,00,03,3.20
2017,12,07,00,04,3.20
2017,12,07,00,05,3.20
2017,12,07,00,06,3.20
2017,12,07,00,07,3.20
2017,12,07,00,08,3.10
2017,12,07,00,09,3.10
2017,12,07,00,10,3.10
2017,12,07,00,11,3.10
2017,12,07,00,12,3.10
2017,12,07,00,13,3.10
2017,12,07,00,14,3.10
2017,12,07,00,15,3.10
2017,12,07,00,16,3.00
2017,12,07,00,17,3.00
2017,12,07,00,18,3.00
2017,12,07,00,19,3.00
2017,12,07,00,20,3.00
2017,12,07,00,21,3.10
2017,12,07,00,22,3.00
2017,12,07,00,23,3.10
2017,12,07,00,24,3.10
2017,12,07,00,25,3.10
2017,12,07,00,26,3.10
2017,12,07,00,27,3.10
2017,12,07,00,28,3.10
2017,12,07,00,29,3.10
2017,12,07,00,30,3.10
2017,12,07,00,31,3.10
2017,12,07,00,32,3.10
2017,12,07,00,33,3.10
2017,12,07,00,34,3.10
2017,12,07,00,35,3.10
2017,12,07,00,36,3.10
2017,12,07,00,37,3.10
2017,12,07,00,38,3.10
2017,12,07,00,39,3.10
2017,12,07,00,40,3.00
2017,12,07,00,41,2.90
2017,12,07,00,42,2.90
2017,12,07,00,43,2.90
2017,12,07,00,44,2.80
2017,12,07,00,45,2.70
2017,12,07,00,46,2.60
2017,12,07,00,47,2.60
2017,12,07,00,48,2.50
2017,12,07,00,49,2.40
2017,12,07,00,50,2.40
2017,12,07,00,51,2.30
2017,12,07,00,52,2.30
2017,12,07,00,53,2.30
2017,12,07,00,54,2.20
2017,12,07,00,55,2.20
2017,12,07,00,56,2.20
2017,12,07,00,57,2.10
2017,12,07,00,58,2.10
2017,12,07,00,59,2.00
2017,12,07,01,00,1.90
2017,12,07,01,01,1.90
2017,12,07,01,02,1.80
2017,12,07,01,03,1.80
2017,12,07,01,04,1.70
2017,12,07,01,05,1.70
2017,12,07,01,06,1.70
2017,12,07,01,07,1.70
2017,12,07,01,08,1.70
2017,12,07,01,09,1.60
2017,12,07,01,10,1.60
2017,12,07,01,11,1.50
2017,12,07,01,12,1.40
2017,12,07,01,13,1.30
2017,12,07,01,14,1.30
2017,12,07,01,15,1.30
2017,12,07,01,16,1.30
2017,12,07,01,17,1.30
2017,12,07,01,18,1.30
2017,12,07,01,19,1.30
2017,12,07,01,20,1.30
2017,12,07,01,21,1.30
2017,12,07,01,22,1.30
2017,12,07,01,23,1.30
2017,12,07,01,24,1.30
2017,12,07,01,25,1.30
2017,12,07,01,26,1.30
2017,12,07,01,27,1.30
2017,12,07,01,28,1.30
2017,12,07,01,29,1.30
2017,12,07,01,30,1.30
2017,12,07,01,31,1.30
2017,12,07,01,32,1.30
2017,12,07,01,33,1.30
2017,12,07,01,34,1.30
2017,12,07,01,35,1.30
2017,12,07,01,36,1.30
2017,12,07,01,37,1.40
2017,12,07,01,38,1.40
2017,12,07,01,39,1.50
2017,12,07,01,40,1.50
2017,12,07,01,41,1.60
2017,12,07,01,42,1.70
2017,12,07,01,43,1.70
2017,12,07,01,44,1.80
2017,12,07,01,45,1.80
2017,12,07,01,46,1.80
2017,12,07,01,47,1.80
2017,12,07,01,48,1.80
2017,12,07,01,49,1.80
2017,12,07,01,50,1.80
2017,12,07,01,51,1.80
2017,12,07,01,52,1.80
2017,12,07,01,53,1.80
2017,12,07,01,54,1.80
2017,12,07,01,55,1.80
2017,12,07,01,56,1.80
2017,12,07,01,57,1.80
2017,12,07,01,58,1.80
2017,12,07,01,59,1.80
2017,12,07,02,00,1.80
2017,12,07,02,01,1.80
2017,12,07,02,02,1.80
2017,12,07,02,03,1.90
2017,12,07,02,04,1.90
2017,12,07,02,05,2.00
2017,12,07,02,06,2.10
2017,12,07,02,07,2.10
2017,12,07,02,08,2.20
2017,12,07,02,09,2.20
2017,12,07,02,10,2.20
2017,12,07,02,11,2.20
2017,12,07,02,12,2.30
2017,12,07,02,13,2.30
2017,12,07,02,14,2.30
2017,12,07,02,15,2.40
2017,12,07,02,16,2.40
2017,12,07,02,17,2.50
2017,12,07,02,18,2.50
2017,12,07,02,19,2.50
2017,12,07,02,20,2.60
2017,12,07,02,21,2.60
2017,12,07,02,22,2.70
2017,12,07,02,23,2.70
2017,12,07,02,24,2.80
2017,12,07,02,25,2.80
2017,12,07,02,26,2.90
2017,12,07,02,27,2.90
2017,12,07,02,28,2.90
2017,12,07,02,29,3.00
2017,12,07,02,30,3.00
2017,12,07,02,31,3.10
2017,12,07,02,32,3.10
2017,12,07,02,33,3.10
2017,12,07,02,34,3.10
2017,12,07,02,35,3.10
2017,12,07,02,36,3.20
2017,12,07,02,37,3.20
2017,12,07,02,38,3.20
2017,12,07,02,39,3.20
2017,12,07,02,40,3.20
2017,12,07,02,41,3.20
2017,12,07,02,42,3.20
2017,12,07,02,43,3.20
2017,12,07,02,44,3.20
2017,12,07,02,45,3.10
2017,12,07,02,46,3.10
2017,12,07,02,47,3.10
2017,12,07,02,48,3.00
2017,12,07,02,49,3.00
2017,12,07,02,50,2.90
2017,12,07,02,51,2.90
2017,12,07,02,52,2.90
2017,12,07,02,53,2.80
2017,12,07,02,54,2.80
2017,12,07,02,55,2.80
2017,12,07,02,56,2.70
2017,12,07,02,57,2.70
2017,12,07,02,58,2.70
2017,12,07,02,59,2.70
2017,12,07,03,00,2.70
2017,12,07,03,01,2.60
2017,12,07,03,02,2.60
2017,12,07,03,03,2.60
2017,12,07,03,04,2.60
2017,12,07,03,05,2.50
2017,12,07,03,06,2.50
2017,12,07,03,07,2.40
2017,12,07,03,08,2.40
2017,12,07,03,09,2.40
2017,12,07,03,10,2.30
2017,12,07,03,11,2.30
2017,12,07,03,12,2.30
2017,12,07,03,13,2.20
2017,12,07,03,14,2.20
2017,12,07,03,15,2.20
2017,12,07,03,16,2.20
2017,12,07,03,17,2.20
2017,12,07,03,18,2.20
2017,12,07,03,19,2.20
2017,12,07,03,20,2.30
2017,12,07,03,21,2.30
2017,12,07,03,22,2.30
2017,12,07,03,23,2.30
2017,12,07,03,24,2.30
2017,12,07,03,25,2.30
2017,12,07,03,26,2.30
2017,12,07,03,27,2.30
2017,12,07,03,28,2.20
2017,12,07,03,29,2.20
2017,12,07,03,30,2.20
2017,12,07,03,31,2.20
2017,12,07,03,32,2.20
2017,12,07,03,33,2.20
2017,12,07,03,34,2.20
2017,12,07,03,35,2.20
2017,12,07,03,36,2.20
2017,12,07,03,37,2.20
2017,12,07,03,38,2.20
2017,12,07,03,39,2.20
2017,12,07,03,40,2.20
2017,12,07,03,41,2.20
2017,12,07,03,42,2.20
2017,12,07,03,43,2.20
2017,12,07,03,44,2.20
2017,12,07,03,45,2.20
2017,12,07,03,46,2.20
2017,12,07,03,47,2.10
2017,12,07,03,48,2.10
2017,12,07,03,49,2.10
2017,12,07,03,50,2.10
2017,12,07,03,51,2.10
2017,12,07,03,52,2.10
2017,12,07,03,53,2.10
2017,12,07,03,54,2.10
2017,12,07,03,55,2.10
2017,12,07,03,56,2.10
2017,12,07,03,57,2.10
2017,12,07,03,58,2.10
2017,12,07,03,59,2.20
2017,12,07,04,00,2.20
2017,12,07,04,01,2.20
2017,12,07,04,02,2.20
2017,12,07,04,03,2.20
2017,12,07,04,04,2.10
2017,12,07,04,05,2.10
2017,12,07,04,06,2.10
2017,12,07,04,07,2.20
2017,12,07,04,08,2.20
2017,12,07,04,09,2.20
2017,12,07,04,10,2.20
2017,12,07,04,11,2.20
2017,12,07,04,12,2.20
2017,12,07,04,13,2.20
2017,12,07,04,14,2.20
2017,12,07,04,15,2.20
2017,12,07,04,16,2.20
2017,12,07,04,17,2.20
2017,12,07,04,18,2.20
2017,12,07,04,19,2.20
2017,12,07,04,20,2.20
2017,12,07,04,21,2.20
2017,12,07,04,22,2.20
2017,12,07,04,23,2.20
2017,12,07,04,24,2.20
2017,12,07,04,25,2.20
2017,12,07,04,26,2.30
2017,12,07,04,27,2.30
2017,12,07,04,28,2.30
2017,12,07,04,29,2.30
2017,12,07,04,30,2.30
2017,12,07,04,31,2.30
2017,12,07,04,32,2.20
2017,12,07,04,33,2.20
2017,12,07,04,34,2.20
2017,12,07,04,35,2.30
2017,12,07,04,36,2.30
2017,12,07,04,37,2.30
2017,12,07,04,38,2.30
2017,12,07,04,39,2.30
2017,12,07,04,40,2.40
2017,12,07,04,41,2.40
2017,12,07,04,42,2.40
2017,12,07,04,43,2.50
2017,12,07,04,44,2.50
2017,12,07,04,45,2.50
2017,12,07,04,46,2.50
2017,12,07,04,47,2.50
2017,12,07,04,48,2.60
2017,12,07,04,49,2.60
2017,12,07,04,50,2.60
2017,12,07,04,51,2.70
2017,12,07,04,52,2.70
2017,12,07,04,53,2.80
2017,12,07,04,54,2.80
2017,12,07,04,55,2.90
2017,12,07,04,56,2.90
2017,12,07,04,57,3.00
2017,12,07,04,58,3.10
2017,12,07,04,59,3.10
2017,12,07,05,00,3.20
2017,12,07,05,01,3.20
2017,12,07,05,02,3.20
2017,12,07,05,03,3.20
2017,12,07,05,04,3.20
2017,12,07,05,05,3.30
2017,12,07,05,06,3.30
2017,12,07,05,07,3.30
2017,12,07,05,08,3.30
2017,12,07,05,09,3.20
2017,12,07,05,10,3.20
2017,12,07,05,11,3.20
2017,12,07,05,12,3.20
2017,12,07,05,13,3.20
2017,12,07,05,14,3.10
2017,12,07,05,15,3.10
2017,12,07,05,16,3.00
2017,12,07,05,17,3.00
2017,12,07,05,18,2.90
2017,12,07,05,19,2.90
2017,12,07,05,20,2.80
2017,12,07,05,21,2.80
2017,12,07,05,22,2.80
2017,12,07,05,23,2.70
2017,12,07,05,24,2.70
2017,12,07,05,25,2.60
2017,12,07,05,26,2.60
2017,12,07,05,27,2.50
2017,12,07,05,28,2.50
2017,12,07,05,29,2.40
2017,12,07,05,30,2.40
2017,12,07,05,31,2.30
2017,12,07,05,32,2.30
2017,12,07,05,33,2.20
2017,12,07,05,34,2.20
2017,12,07,05,35,2.20
2017,12,07,05,36,2.20
2017,12,07,05,37,2.20
2017,12,07,05,38,2.20
2017,12,07,05,39,2.20
2017,12,07,05,40,2.10
2017,12,07,05,41,2.10
2017,12,07,05,42,2.10
2017,12,07,05,43,2.10
2017,12,07,05,44,2.10
2017,12,07,05,45,2.10
2017,12,07,05,46,2.10
2017,12,07,05,47,2.10
2017,12,07,05,48,2.10
2017,12,07,05,49,2.10
2017,12,07,05,50,2.10
2017,12,07,05,51,2.10
2017,12,07,05,52,2.00
2017,12,07,05,53,2.00
2017,12,07,05,54,2.00
2017,12,07,05,55,1.90
2017,12,07,05,56,1.90
2017,12,07,05,57,1.80
2017,12,07,05,58,1.80
2017,12,07,05,59,1.80
2017,12,07,06,00,1.80
2017,12,07,06,01,1.80
2017,12,07,06,02,1.80
2017,12,07,06,03,1.80
2017,12,07,06,04,1.90
2017,12,07,06,05,1.90
2017,12,07,06,06,1.90
2017,12,07,06,07,1.90
2017,12,07,06,08,1.90
2017,12,07,06,09,1.90
2017,12,07,06,10,1.90
2017,12,07,06,11,1.90
2017,12,07,06,12,1.90
2017,12,07,06,13,1.90
2017,12,07,06,14,1.90
2017,12,07,06,15,1.90
2017,12,07,06,16,2.00
2017,12,07,06,17,2.00
2017,12,07,06,18,1.90
2017,12,07,06,19,1.90
2017,12,07,06,20,1.90
2017,12,07,06,21,1.90
2017,12,07,06,22,1.90
2017,12,07,06,23,1.90
2017,12,07,06,24,1.90
2017,12,07,06,25,1.90
2017,12,07,06,26,1.90
2017,12,07,06,27,1.80
2017,12,07,06,28,1.80
2017,12,07,06,29,1.80
2017,12,07,06,30,1.80
2017,12,07,06,31,1.80
2017,12,07,06,32,1.70
2017,12,07,06,33,1.70
2017,12,07,06,34,1.70
2017,12,07,06,35,1.70
2017,12,07,06,36,1.70
2017,12,07,06,37,1.70
2017,12,07,06,38,1.60
2017,12,07,06,39,1.60
2017,12,07,06,40,1.50
2017,12,07,06,41,1.50
2017,12,07,06,42,1.40
2017,12,07,06,43,1.40
2017,12,07,06,44,1.30
2017,12,07,06,45,1.30
2017,12,07,06,46,1.30
2017,12,07,06,47,1.30
2017,12,07,06,48,1.30
2017,12,07,06,49,1.40
2017,12,07,06,50,1.40
2017,12,07,06,51,1.40
2017,12,07,06,52,1.50
2017,12,07,06,53,1.50
2017,12,07,06,54,1.50
2017,12,07,06,55,1.40
2017,12,07,06,56,1.40
2017,12,07,06,57,1.30
2017,12,07,06,58,1.30
2017,12,07,06,59,1.30
2017,12,07,07,00,1.30
2017,12,07,07,01,1.30
2017,12,07,07,02,1.30
2017,12,07,07,03,1.20
2017,12,07,07,04,1.20
2017,12,07,07,05,1.10
2017,12,07,07,06,1.10
2017,12,07,07,07,1.10
2017,12,07,07,08,1.10
2017,12,07,07,09,1.00
2017,12,07,07,10,1.00
2017,12,07,07,11,1.00
2017,12,07,07,12,1.00
2017,12,07,07,13,1.00
2017,12,07,07,14,1.00
2017,12,07,07,15,1.00
2017,12,07,07,16,1.00
2017,12,07,07,17,1.00
2017,12,07,07,18,1.00
2017,12,07,07,19,1.00
2017,12,07,07,20,1.00
2017,12,07,07,21,1.00
2017,12,07,07,22,1.00
2017,12,07,07,23,0.90
2017,12,07,07,24,0.90
2017,12,07,07,25,0.90
2017,12,07,07,26,0.90
2017,12,07,07,27,0.90
2017,12,07,07,28,0.80
2017,12,07,07,29,0.80
2017,12,07,07,30,0.80
2017,12,07,07,31,0.80
2017,12,07,07,32,0.80
2017,12,07,07,33,0.70
2017,12,07,07,34,0.70
2017,12,07,07,35,0.70
2017,12,07,07,36,0.70
2017,12,07,07,37,0.60
2017,12,07,07,38,0.60
2017,12,07,07,39,0.60
2017,12,07,07,40,0.60
2017,12,07,07,41,0.60
2017,12,07,07,42,0.60
2017,12,07,07,43,0.60
2017,12,07,07,44,0.60
2017,12,07,07,45,0.60
2017,12,07,07,46,0.70
2017,12,07,07,47,0.70
2017,12,07,07,48,0.80
2017,12,07,07,49,0.80
2017,12,07,07,50,0.80
2017,12,07,07,51,0.80
2017,12,07,07,52,0.80
2017,12,07,07,53,0.80
2017,12,07,07,54,0.80
2017,12,07,07,55,0.80
2017,12,07,07,56,0.80
2017,12,07,07,57,0.80
2017,12,07,07,58,0.80
2017,12,07,07,59,0.80
2017,12,07,08,00,0.80
2017,12,07,08,01,0.90
2017,12,07,08,02,0.90
2017,12,07,08,03,0.90
2017,12,07,08,04,0.90
2017,12,07,08,05,1.00
2017,12,07,08,06,1.00
2017,12,07,08,07,1.10
2017,12,07,08,08,1.10
2017,12,07,08,09,1.10
2017,12,07,08,10,1.20
2017,12,07,08,11,1.20
2017,12,07,08,12,1.20
2017,12,07,08,13,1.30
2017,12,07,08,14,1.30
2017,12,07,08,15,1.30
2017,12,07,08,16,1.30
2017,12,07,08,17,1.30
2017,12,07,08,18,1.30
2017,12,07,08,19,1.40
2017,12,07,08,20,1.50
2017,12,07,08,21,1.50
2017,12,07,08,22,1.60
2017,12,07,08,23,1.60
2017,12,07,08,24,1.60
2017,12,07,08,25,1.60
2017,12,07,08,26,1.60
2017,12,07,08,27,1.60
2017,12,07,08,28,1.60
2017,12,07,08,29,1.60
2017,12,07,08,30,1.70
2017,12,07,08,31,1.70
2017,12,07,08,32,1.70
2017,12,07,08,33,1.80
2017,12,07,08,34,1.80
2017,12,07,08,35,1.90
2017,12,07,08,36,2.00
2017,12,07,08,37,2.10
2017,12,07,08,38,2.20
2017,12,07,08,39,2.30
2017,12,07,08,40,2.30
2017,12,07,08,41,2.40
2017,12,07,08,42,2.40
2017,12,07,08,43,2.50
2017,12,07,08,44,2.60
2017,12,07,08,45,2.70
2017,12,07,08,46,2.70
2017,12,07,08,47,2.70
2017,12,07,08,48,2.60
2017,12,07,08,49,2.60
2017,12,07,08,50,2.60
2017,12,07,08,51,2.60
2017,12,07,08,52,2.50
2017,12,07,08,53,2.50
2017,12,07,08,54,2.50
2017,12,07,08,55,2.60
2017,12,07,08,56,2.60
2017,12,07,08,57,2.60
2017,12,07,08,58,2.70
2017,12,07,08,59,2.70
2017,12,07,09,00,2.70
2017,12,07,09,01,2.80
2017,12,07,09,02,2.80
2017,12,07,09,03,2.90
2017,12,07,09,04,3.00
2017,12,07,09,05,3.10
2017,12,07,09,06,3.10
2017,12,07,09,07,3.10
2017,12,07,09,08,3.20
2017,12,07,09,09,3.20
2017,12,07,09,10,3.20
2017,12,07,09,11,3.20
2017,12,07,09,12,3.20
2017,12,07,09,13,3.20
2017,12,07,09,14,3.20
2017,12,07,09,15,3.20
2017,12,07,09,16,3.20
2017,12,07,09,17,3.20
2017,12,07,09,18,3.10
2017,12,07,09,19,3.10
2017,12,07,09,20,3.10
2017,12,07,09,21,3.10
2017,12,07,09,22,3.10
2017,12,07,09,23,3.10
2017,12,07,09,24,3.10
2017,12,07,09,25,3.10
2017,12,07,09,26,3.10
2017,12,07,09,27,3.00
2017,12,07,09,28,2.90
2017,12,07,09,29,2.90
2017,12,07,09,30,2.80
2017,12,07,09,31,2.80
2017,12,07,09,32,2.80
2017,12,07,09,33,2.80
2017,12,07,09,34,2.80
2017,12,07,09,35,2.80
2017,12,07,09,36,2.80
2017,12,07,09,37,2.90
2017,12,07,09,38,3.00
2017,12,07,09,39,3.00
2017,12,07,09,40,3.10
2017,12,07,09,41,3.20
2017,12,07,09,42,3.20
2017,12,07,09,43,3.30
2017,12,07,09,44,3.20
2017,12,07,09,45,3.20
2017,12,07,09,46,3.20
2017,12,07,09,47,3.10
2017,12,07,09,48,3.10
2017,12,07,09,49,3.10
2017,12,07,09,50,3.10
2017,12,07,09,51,3.10
2017,12,07,09,52,3.00
2017,12,07,09,53,3.00
2017,12,07,09,54,3.00
2017,12,07,09,55,3.10
2017,12,07,09,56,3.10
2017,12,07,09,57,3.20
2017,12,07,09,58,3.20
2017,12,07,09,59,3.20
2017,12,07,10,00,3.20
2017,12,07,10,01,3.20
2017,12,07,10,02,3.20
2017,12,07,10,03,3.20
2017,12,07,10,04,3.20
2017,12,07,10,05,3.20
2017,12,07,10,06,3.20
2017,12,07,10,07,3.20
2017,12,07,10,08,3.20
2017,12,07,10,09,3.20
2017,12,07,10,10,3.20
2017,12,07,10,11,3.20
2017,12,07,10,12,3.10
2017,12,07,10,13,3.00
2017,12,07,10,14,2.90
2017,12,07,10,15,2.90
2017,12,07,10,16,2.80
2017,12,07,10,17,2.80
2017,12,07,10,18,2.70
2017,12,07,10,19,2.70
2017,12,07,10,20,2.60
2017,12,07,10,21,2.60
2017,12,07,10,22,2.60
2017,12,07,10,23,2.60
2017,12,07,10,24,2.60
2017,12,07,10,25,2.60
2017,12,07,10,26,2.70
2017,12,07,10,27,2.70
2017,12,07,10,28,2.80
2017,12,07,10,29,2.90
2017,12,07,10,30,2.90
2017,12,07,10,31,3.00
2017,12,07,10,32,3.00
2017,12,07,10,33,3.10
2017,12,07,10,34,3.10
2017,12,07,10,35,3.10
2017,12,07,10,36,3.10
2017,12,07,10,37,3.10
2017,12,07,10,38,3.10
2017,12,07,10,39,3.10
2017,12,07,10,40,3.10
2017,12,07,10,41,3.10
2017,12,07,10,42,3.10
2017,12,07,10,43,3.10
2017,12,07,10,44,3.10
2017,12,07,10,45,3.10
2017,12,07,10,46,3.10
2017,12,07,10,47,3.10
2017,12,07,10,48,3.10
2017,12,07,10,49,3.10
2017,12,07,10,50,3.10
2017,12,07,10,51,3.10
2017,12,07,10,52,3.10
2017,12,07,10,53,3.10
2017,12,07,10,54,3.10
2017,12,07,10,55,3.10
2017,12,07,10,56,3.10
2017,12,07,10,57,3.10
2017,12,07,10,58,3.10
2017,12,07,10,59,3.20
2017,12,07,11,00,3.20
2017,12,07,11,01,3.20
2017,12,07,11,02,3.20
2017,12,07,11,03,3.20
2017,12,07,11,04,3.30
2017,12,07,11,05,3.30
2017,12,07,11,06,3.30
2017,12,07,11,07,3.30
2017,12,07,11,08,3.40
2017,12,07,11,09,3.40
2017,12,07,11,10,3.50
2017,12,07,11,11,3.50
2017,12,07,11,12,3.60
2017,12,07,11,13,3.60
2017,12,07,11,14,3.60
2017,12,07,11,15,3.70
2017,12,07,11,16,3.70
2017,12,07,11,17,3.80
2017,12,07,11,18,3.80
2017,12,07,11,19,3.80
2017,12,07,11,20,3.80
2017,12,07,11,21,3.80
2017,12,07,11,22,3.80
2017,12,07,11,23,3.80
2017,12,07,11,24,3.80
2017,12,07,11,25,3.80
2017,12,07,11,26,3.80
2017,12,07,11,27,3.80
2017,12,07,11,28,3.80
2017,12,07,11,29,3.80
2017,12,07,11,30,3.80
2017,12,07,11,31,3.80
2017,12,07,11,32,3.80
2017,12,07,11,33,3.80
2017,12,07,11,34,3.80
2017,12,07,11,35,3.80
2017,12,07,11,36,3.80
2017,12,07,11,37,3.80
2017,12,07,11,38,3.80
2017,12,07,11,39,3.70
2017,12,07,11,40,3.70
2017,12,07,11,41,3.70
2017,12,07,11,42,3.70
2017,12,07,11,43,3.80
2017,12,07,11,44,3.80
2017,12,07,11,45,3.80
2017,12,07,11,46,3.80
2017,12,07,11,47,3.90
2017,12,07,11,48,3.90
2017,12,07,11,49,4.00
2017,12,07,11,50,4.00
2017,12,07,11,51,4.00
2017,12,07,11,52,4.10
2017,12,07,11,53,4.10
2017,12,07,11,54,4.10
2017,12,07,11,55,4.10
2017,12,07,11,56,4.10
2017,12,07,11,57,4.10
2017,12,07,11,58,4.10
2017,12,07,11,59,4.10
2017,12,07,12,00,4.10
2017,12,07,12,01,4.10
2017,12,07,12,02,4.10
2017,12,07,12,03,4.20
2017,12,07,12,04,4.20
2017,12,07,12,05,4.30
2017,12,07,12,06,4.30
2017,12,07,12,07,4.30
2017,12,07,12,08,4.30
2017,12,07,12,09,4.30
2017,12,07,12,10,4.40
2017,12,07,12,11,4.40
2017,12,07,12,12,4.50
2017,12,07,12,13,4.50
2017,12,07,12,14,4.50
2017,12,07,12,15,4.60
2017,12,07,12,16,4.60
2017,12,07,12,17,4.60
2017,12,07,12,18,4.50
2017,12,07,12,19,4.40
2017,12,07,12,20,4.40
2017,12,07,12,21,4.30
2017,12,07,12,22,4.30
2017,12,07,12,23,4.20
2017,12,07,12,24,4.20
2017,12,07,12,25,4.20
2017,12,07,12,26,4.20
2017,12,07,12,27,4.20
2017,12,07,12,28,4.10
2017,12,07,12,29,4.10
2017,12,07,12,30,4.00
2017,12,07,12,31,4.00
2017,12,07,12,32,4.00
2017,12,07,12,33,3.90
2017,12,07,12,34,3.90
2017,12,07,12,35,3.90
2017,12,07,12,36,3.90
2017,12,07,12,37,3.80
2017,12,07,12,38,3.80
2017,12,07,12,39,3.80
2017,12,07,12,40,3.80
2017,12,07,12,41,3.80
2017,12,07,12,42,3.70
2017,12,07,12,43,3.70
2017,12,07,12,44,3.70
2017,12,07,12,45,3.70
2017,12,07,12,46,3.70
2017,12,07,12,47,3.70
2017,12,07,12,48,3.70
2017,12,07,12,49,3.70
2017,12,07,12,50,3.70
2017,12,07,12,51,3.70
2017,12,07,12,52,3.70
2017,12,07,12,53,3.60
2017,12,07,12,54,3.60
2017,12,07,12,55,3.60
2017,12,07,12,56,3.60
2017,12,07,12,57,3.60
2017,12,07,12,58,3.60
2017,12,07,12,59,3.60
2017,12,07,13,00,3.60
2017,12,07,13,01,3.60
2017,12,07,13,02,3.60
2017,12,07,13,03,3.70
2017,12,07,13,04,3.70
2017,12,07,13,05,3.70
2017,12,07,13,06,3.70
2017,12,07,13,07,3.70
2017,12,07,13,08,3.70
2017,12,07,13,09,3.70
2017,12,07,13,10,3.70
2017,12,07,13,11,3.80
2017,12,07,13,12,3.80
2017,12,07,13,13,3.80
2017,12,07,13,14,3.90
2017,12,07,13,15,3.90
2017,12,07,13,16,4.00
2017,12,07,13,17,4.00
2017,12,07,13,18,4.10
2017,12,07,13,19,4.10
2017,12,07,13,20,4.10
2017,12,07,13,21,4.10
2017,12,07,13,22,4.10
2017,12,07,13,23,4.10
2017,12,07,13,24,4.10
2017,12,07,13,25,4.10
2017,12,07,13,26,4.10
2017,12,07,13,27,4.10
2017,12,07,13,28,4.10
2017,12,07,13,29,4.10
2017,12,07,13,30,4.10
2017,12,07,13,31,4.10
2017,12,07,13,32,4.10
2017,12,07,13,33,4.10
2017,12,07,13,34,4.10
2017,12,07,13,35,4.20
2017,12,07,13,36,4.20
2017,12,07,13,37,4.20
2017,12,07,13,38,4.20
2017,12,07,13,39,4.30
2017,12,07,13,40,4.30
2017,12,07,13,41,4.30
2017,12,07,13,42,4.30
2017,12,07,13,43,4.40
2017,12,07,13,44,4.40
2017,12,07,13,45,4.40
2017,12,07,13,46,4.40
2017,12,07,13,47,4.40
2017,12,07,13,48,4.40
2017,12,07,13,49,4.30
2017,12,07,13,50,4.40
2017,12,07,13,51,4.40
2017,12,07,13,52,4.30
2017,12,07,13,53,4.30
2017,12,07,13,54,4.30
2017,12,07,13,55,4.30
2017,12,07,13,56,4.20
2017,12,07,13,57,4.20
2017,12,07,13,58,4.20
2017,12,07,13,59,4.20
2017,12,07,14,00,4.10
2017,12,07,14,01,4.10
2017,12,07,14,02,4.10
2017,12,07,14,03,4.10
2017,12,07,14,04,4.10
2017,12,07,14,05,4.00
2017,12,07,14,06,4.00
2017,12,07,14,07,3.90
2017,12,07,14,08,3.90
2017,12,07,14,09,3.80
2017,12,07,14,10,3.70
2017,12,07,14,11,3.70
2017,12,07,14,12,3.70
2017,12,07,14,13,3.70
2017,12,07,14,14,3.60
2017,12,07,14,15,3.60
2017,12,07,14,16,3.60
2017,12,07,14,17,3.60
2017,12,07,14,18,3.60
2017,12,07,14,19,3.60
2017,12,07,14,20,3.60
2017,12,07,14,21,3.60
2017,12,07,14,22,3.60
2017,12,07,14,23,3.60
2017,12,07,14,24,3.60
2017,12,07,14,25,3.50
2017,12,07,14,26,3.50
2017,12,07,14,27,3.50
2017,12,07,14,28,3.50
2017,12,07,14,29,3.50
2017,12,07,14,30,3.50
2017,12,07,14,31,3.50
2017,12,07,14,32,3.50
2017,12,07,14,33,3.50
2017,12,07,14,34,3.60
2017,12,07,14,35,3.60
2017,12,07,14,36,3.60
2017,12,07,14,37,3.70
2017,12,07,14,38,3.70
2017,12,07,14,39,3.70
2017,12,07,14,40,3.70
2017,12,07,14,41,3.60
2017,12,07,14,42,3.60
2017,12,07,14,43,3.60
2017,12,07,14,44,3.50
2017,12,07,14,45,3.50
2017,12,07,14,46,3.50
2017,12,07,14,47,3.40
2017,12,07,14,48,3.40
2017,12,07,14,49,3.40
2017,12,07,14,50,3.30
2017,12,07,14,51,3.30
2017,12,07,14,52,3.30
2017,12,07,14,53,3.20
2017,12,07,14,54,3.20
2017,12,07,14,55,3.10
2017,12,07,14,56,3.10
2017,12,07,14,57,3.00
2017,12,07,14,58,3.00
2017,12,07,14,59,2.90
2017,12,07,15,00,2.80
2017,12,07,15,01,2.80
2017,12,07,15,02,2.70
2017,12,07,15,03,2.60
2017,12,07,15,04,2.50
2017,12,07,15,05,2.50
2017,12,07,15,06,2.40
2017,12,07,15,07,2.30
2017,12,07,15,08,2.30
2017,12,07,15,09,2.30
2017,12,07,15,10,2.20
2017,12,07,15,11,2.20
2017,12,07,15,12,2.30
2017,12,07,15,13,2.30
2017,12,07,15,14,2.40
2017,12,07,15,15,2.40
2017,12,07,15,16,2.50
2017,12,07,15,17,2.60
2017,12,07,15,18,2.60
2017,12,07,15,19,2.60
2017,12,07,15,20,2.60
2017,12,07,15,21,2.70
2017,12,07,15,22,2.70
2017,12,07,15,23,2.70
2017,12,07,15,24,2.70
2017,12,07,15,25,2.70
2017,12,07,15,26,2.70
2017,12,07,15,27,2.70
2017,12,07,15,28,2.70
2017,12,07,15,29,2.80
2017,12,07,15,30,2.80
2017,12,07,15,31,2.70
2017,12,07,15,32,2.70
2017,12,07,15,33,2.60
2017,12,07,15,34,2.60
2017,12,07,15,35,2.50
2017,12,07,15,36,2.40
2017,12,07,15,37,2.30
2017,12,07,15,38,2.20
2017,12,07,15,39,2.00
2017,12,07,15,40,1.90
2017,12,07,15,41,1.80
2017,12,07,15,42,1.80
2017,12,07,15,43,1.70
2017,12,07,15,44,1.60
2017,12,07,15,45,1.60
2017,12,07,15,46,1.50
2017,12,07,15,47,1.50
2017,12,07,15,48,1.40
2017,12,07,15,49,1.30
2017,12,07,15,50,1.30
2017,12,07,15,51,1.30
2017,12,07,15,52,1.30
2017,12,07,15,53,1.30
2017,12,07,15,54,1.30
2017,12,07,15,55,1.30
2017,12,07,15,56,1.30
2017,12,07,15,57,1.30
2017,12,07,15,58,1.20
2017,12,07,15,59,1.20
2017,12,07,16,00,1.10
2017,12,07,16,01,1.10
2017,12,07,16,02,1.10
2017,12,07,16,03,1.00
2017,12,07,16,04,0.90
2017,12,07,16,05,0.90
2017,12,07,16,06,0.90
2017,12,07,16,07,0.80
2017,12,07,16,08,0.80
2017,12,07,16,09,0.80
2017,12,07,16,10,0.80
2017,12,07,16,11,0.80
2017,12,07,16,12,0.70
2017,12,07,16,13,0.70
2017,12,07,16,14,0.70
2017,12,07,16,15,0.70
2017,12,07,16,16,0.80
2017,12,07,16,17,0.80
2017,12,07,16,18,0.70
2017,12,07,16,19,0.70
2017,12,07,16,20,0.70
2017,12,07,16,21,0.70
2017,12,07,16,22,0.70
2017,12,07,16,23,0.70
2017,12,07,16,24,0.60
2017,12,07,16,25,0.60
2017,12,07,16,26,0.60
2017,12,07,16,27,0.50
2017,12,07,16,28,0.50
2017,12,07,16,29,0.50
2017,12,07,16,30,0.50
2017,12,07,16,31,0.40
2017,12,07,16,32,0.40
2017,12,07,16,33,0.50
2017,12,07,16,34,0.50
2017,12,07,16,35,0.50
2017,12,07,16,36,0.50
2017,12,07,16,37,0.50
2017,12,07,16,38,0.60
2017,12,07,16,39,0.60
2017,12,07,16,40,0.60
2017,12,07,16,41,0.60
2017,12,07,16,42,0.60
2017,12,07,16,43,0.50
2017,12,07,16,44,0.50
2017,12,07,16,45,0.50
2017,12,07,16,46,0.50
2017,12,07,16,47,0.50
2017,12,07,16,48,0.50
2017,12,07,16,49,0.40
2017,12,07,16,50,0.40
2017,12,07,16,51,0.40
2017,12,07,16,52,0.30
2017,12,07,16,53,0.30
2017,12,07,16,54,0.30
2017,12,07,16,55,0.30
2017,12,07,16,56,0.30
2017,12,07,16,57,0.30
2017,12,07,16,58,0.20
2017,12,07,16,59,0.20
2017,12,07,17,00,0.20
2017,12,07,17,01,0.20
2017,12,07,17,02,0.20
2017,12,07,17,03,0.20
2017,12,07,17,04,0.20
2017,12,07,17,05,0.20
2017,12,07,17,06,0.20
2017,12,07,17,07,0.20
2017,12,07,17,08,0.20
2017,12,07,17,09,0.20
2017,12,07,17,10,0.20
2017,12,07,17,11,0.20
2017,12,07,17,12,0.20
2017,12,07,17,13,0.20
2017,12,07,17,14,0.20
2017,12,07,17,15,0.20
2017,12,07,17,16,0.20
2017,12,07,17,17,0.20
2017,12,07,17,18,0.20
2017,12,07,17,19,0.20
2017,12,07,17,20,0.20
2017,12,07,17,21,0.20
2017,12,07,17,22,0.20
2017,12,07,17,23,0.20
2017,12,07,17,24,0.10
2017,12,07,17,25,0.10
2017,12,07,17,26,0.10
2017,12,07,17,27,0.10
2017,12,07,17,28,0.10
2017,12,07,17,29,0.10
2017,12,07,17,30,0.10
2017,12,07,17,31,0.00
2017,12,07,17,32,0.00
2017,12,07,17,33,0.00
2017,12,07,17,34,0.00
2017,12,07,17,35,0.00
2017,12,07,17,36,0.00
2017,12,07,17,37,0.00
2017,12,07,17,38,0.00
2017,12,07,17,39,0.00
2017,12,07,17,40,0.10
2017,12,07,17,41,0.10
2017,12,07,17,42,0.10
2017,12,07,17,43,0.10
2017,12,07,17,44,0.10
2017,12,07,17,45,0.10
2017,12,07,17,46,0.10
2017,12,07,17,47,0.10
2017,12,07,17,48,0.10
2017,12,07,17,49,0.10
2017,12,07,17,50,0.10
2017,12,07,17,51,0.10
2017,12,07,17,52,0.10
2017,12,07,17,53,0.10
2017,12,07,17,54,0.10
2017,12,07,17,55,0.10
2017,12,07,17,56,0.10
2017,12,07,17,57,0.10
2017,12,07,17,58,0.10
2017,12,07,17,59,0.10
2017,12,07,18,00,0.10
2017,12,07,18,01,0.10
2017,12,07,18,02,0.10
2017,12,07,18,03,0.10
2017,12,07,18,04,0.10
2017,12,07,18,05,0.10
2017,12,07,18,06,0.10